SCP
0 0 0 0 0 0 0 0 0 0 0 0 0 0 0 0 0 0 0 0 0 0 0 0 0 0 0 0 0 0 0 0 0 0 0 0 0 0 0 0 1 1 1 1
0 0 0 0 0 0 0 0 0 0 0 0 0 0 0 0 0 0 0 0 0 0 0 0 0 0 0 0 0 0 0 0 0 0 0 0 0 0 0 0 1 1 1 1
0 0 0 0 0 0 0 0 0 0 0 0 0 0 0 0 0 0 0 0 0 0 0 0 0 0 0 0 0 0 0 0 0 0 0 0 0 0 0 0 0 0 0 0
0 0 0 0 0 0 0 0 0 0 0 0 0 0 0 0 0 0 0 0 0 0 0 0 0 0 0 0 0 0 0 0 0 0 0 0 0 0 0 0 0 0 0 0
0 0 0 0 0 0 0 0 0 0 0 0 0 0 0 0 0 0 0 0 0 0 0 0 0 0 0 0 0 0 0 0 0 0 0 0 0 0 0 0 0 0 0 0
0 0 0 0 0 0 0 0 0 0 0 0 0 0 0 0 0 0 0 0 0 0 0 0 0 0 0 0 0 0 0 0 0 0 0 0 0 0 0 0 0 0 0 0
0 0 0 0 0 0 0 0 0 0 0 0 0 0 0 0 0 0 0 0 0 0 0 0 0 0 0 0 0 0 0 0 0 0 0 0 0 0 0 0 0 0 0 0
0 0 0 0 0 0 0 0 0 0 0 0 0 0 0 0 0 0 0 0 0 0 0 0 0 0 0 0 0 0 0 0 0 0 0 0 0 0 0 0 0 0 0 0
0 0 0 0 0 0 0 0 0 0 0 0 0 0 0 0 0 0 0 0 0 0 0 0 0 0 0 0 0 0 0 0 0 0 0 0 0 0 0 0 0 0 0 0
0 0 0 0 0 0 0 0 0 0 0 0 0 0 0 0 0 0 0 0 0 0 0 0 0 0 0 0 0 0 0 0 0 0 0 0 0 0 0 0 0 0 0 0
0 0 0 0 0 0 0 0 0 0 0 0 0 0 0 0 0 0 0 0 0 0 0 0 0 0 0 0 0 0 0 0 0 0 0 0 0 0 0 0 0 0 0 0
0 0 0 0 0 0 0 0 0 0 0 0 0 0 0 0 0 0 0 0 0 0 0 0 0 0 0 0 0 0 0 0 0 0 0 0 0 0 0 0 0 0 0 0
0 0 0 0 0 0 0 0 0 0 0 0 0 0 0 0 0 0 0 0 0 0 0 0 0 0 0 0 0 0 0 0 0 0 0 0 0 0 0 0 0 0 0 0
0 0 0 0 0 0 0 0 0 0 0 0 0 0 0 0 0 0 0 0 0 0 0 0 0 0 0 0 0 0 0 0 0 0 0 0 0 0 0 0 0 0 0 0
0 0 0 0 0 0 0 0 0 0 0 0 0 0 0 0 0 0 0 0 0 0 0 0 0 0 0 0 0 0 0 0 0 0 0 0 0 0 0 0 0 0 0 0
0 0 0 0 0 0 0 0 0 0 0 0 0 0 0 0 0 0 0 0 0 0 0 0 0 0 0 0 0 0 0 0 0 0 0 0 0 0 0 0 0 0 0 0
0 0 0 0 0 0 0 0 0 0 0 0 0 0 0 0 0 0 0 0 0 0 0 0 0 0 0 0 0 0 0 0 0 0 0 0 0 0 0 0 0 0 0 0
0 0 0 0 0 0 0 0 0 0 0 0 0 0 0 0 0 0 0 0 0 0 0 0 0 0 0 0 0 0 0 0 0 0 0 0 0 0 0 0 0 0 0 0
0 0 0 0 0 0 0 0 0 0 0 0 0 0 0 0 0 0 0 0 0 0 0 0 0 0 0 0 0 0 0 0 0 0 0 0 0 0 0 0 0 0 0 0
0 0 0 0 0 0 0 0 0 0 0 0 0 0 0 0 0 0 0 0 0 0 0 0 0 0 0 0 0 0 0 0 0 0 0 0 0 0 0 0 0 0 0 0
0 0 0 0 0 0 0 0 0 0 0 0 0 0 0 0 0 0 0 0 0 0 0 0 0 0 0 0 0 0 0 0 0 0 0 0 0 0 0 0 0 0 0 0
0 0 0 0 0 0 0 0 0 0 0 0 0 0 0 0 0 0 0 0 0 0 0 0 0 0 0 0 0 0 0 0 0 0 0 0 0 0 0 0 0 0 0 0
0 0 0 0 0 0 0 0 0 0 0 0 0 0 0 0 0 0 0 0 0 0 0 0 0 0 0 0 0 0 0 0 0 0 0 0 0 0 0 0 0 0 0 0
0 0 0 0 0 0 0 0 0 0 0 0 0 0 0 0 0 0 0 0 0 0 0 0 0 0 0 0 0 0 0 0 0 0 0 0 0 0 0 0 0 0 0 0
0 0 0 0 0 0 0 0 0 0 0 0 0 0 0 0 0 0 0 0 0 0 0 0 0 0 0 0 0 0 0 0 0 0 0 0 0 0 0 0 0 0 0 0
0 0 0 0 0 0 0 0 0 0 0 0 0 0 0 0 0 0 0 0 0 0 0 0 0 0 0 0 0 0 0 0 0 0 0 0 0 0 0 0 0 0 0 0
0 0 0 0 0 0 0 0 0 0 0 0 0 0 0 0 0 0 0 0 0 0 0 0 0 0 0 0 0 0 0 0 0 0 0 0 0 0 0 0 0 0 0 0
Wind_Speed
3 3 3 6 9 11 13 11 10 10 12 15 10 9 8 7 7 6 6 6 6 6 5 5 4 4 4 4 3 3 3 3 4 3 3 3 3 3 2 2 3 3 3 3
3 2 4 8 12 13 14 13 15 15 18 15 10 8 9 9 8 8 8 7 7 6 6 6 5 5 4 4 3 3 3 3 3 3 3 3 3 2 2 3 3 3 3 4
3 2 4 11 13 16 12 13 13 15 14 7 6 7 8 8 8 10 9 8 8 7 7 6 5 5 5 4 3 3 3 3 3 3 3 3 3 2 2 3 3 3 3 4
1 1 8 6 2 9 12 13 16 15 13 10 9 7 8 8 10 10 9 8 8 7 6 5 4 3 3 2 2 3 3 3 3 3 3 3 3 3 3 3 3 3 4 4
3 4 11 8 6 8 10 11 14 19 18 12 6 6 9 9 10 10 8 7 6 5 5 4 3 3 3 2 2 3 3 3 3 3 3 3 3 4 3 3 3 4 4 4
4 5 9 5 4 5 4 9 8 14 14 9 6 5 5 2 4 5 5 4 4 3 3 3 3 3 3 3 3 3 4 3 3 3 3 3 4 4 3 3 3 3 3 4
7 8 13 5 7 8 6 6 3 10 10 10 11 8 2 2 2 3 4 4 3 3 3 3 3 3 4 3 4 4 2 2 2 3 3 3 3 2 2 2 2 3 4 4
8 9 14 9 12 13 9 1 3 6 8 10 10 7 5 5 4 3 3 3 3 3 3 2 3 3 4 4 3 2 2 2 2 2 3 2 2 2 2 2 3 3 3 4
15 13 4 13 13 8 3 5 5 6 7 8 8 8 8 7 5 5 4 3 3 3 3 2 2 3 4 4 2 1 2 2 2 2 2 2 2 2 2 2 3 3 3 4
10 15 11 12 13 10 9 9 8 7 6 7 9 9 7 6 5 5 4 4 3 3 3 3 3 3 4 2 1 2 3 3 2 2 2 2 2 3 3 3 3 3 3 4
11 12 9 12 17 18 14 12 11 10 8 10 10 9 8 7 6 5 4 4 4 4 5 4 3 3 3 2 2 3 3 3 3 3 3 3 3 3 4 4 4 4 4 4
15 12 10 9 8 12 13 14 14 12 10 10 10 10 8 7 6 5 4 4 4 4 5 4 3 3 3 2 3 4 3 3 3 3 3 3 3 3 5 6 6 7 7 6
13 8 9 9 7 8 11 11 10 10 10 9 8 8 7 6 4 4 4 5 6 6 5 4 4 4 3 3 4 5 5 4 3 3 3 3 3 3 4 4 6 7 8 9
12 7 9 11 11 8 8 7 6 5 6 5 5 4 5 4 4 5 6 6 5 4 4 4 4 5 3 3 4 5 5 4 4 3 3 3 4 4 4 4 4 4 5 8
16 15 14 8 6 5 4 4 4 6 5 5 4 5 6 6 6 6 5 4 4 4 4 4 5 5 2 3 4 5 4 4 3 3 3 3 3 3 4 4 4 4 4 4
10 10 10 9 10 8 6 6 8 9 7 6 6 6 7 6 5 4 3 4 5 6 5 5 6 4 3 4 4 4 4 4 3 3 3 3 3 4 4 4 4 5 5 4
9 10 10 10 11 10 9 9 9 9 7 7 7 6 5 4 3 4 4 5 5 5 4 5 5 3 4 5 5 4 3 3 4 3 3 4 4 4 4 4 5 5 5 5
11 12 10 8 8 9 8 7 7 7 7 6 5 5 6 6 7 6 5 4 3 3 4 4 4 3 4 5 4 3 3 3 4 4 4 4 4 4 4 5 6 6 5 5
7 7 6 6 6 6 6 6 5 5 5 5 6 6 6 6 5 5 4 4 4 5 4 3 3 3 4 5 4 3 4 4 4 4 4 4 5 5 5 5 5 6 5 5
4 4 3 3 3 3 4 3 3 3 3 4 5 4 4 4 4 4 5 4 4 3 2 2 3 4 4 4 4 4 4 4 4 4 4 4 5 5 5 5 6 6 5 5
2 2 2 2 2 2 2 3 3 3 3 4 5 5 4 3 3 4 4 4 3 2 2 3 3 3 3 3 4 4 4 4 4 4 5 5 5 5 5 6 6 6 6 6
1 1 1 1 2 1 1 1 3 3 4 3 3 3 3 3 3 3 3 3 1 1 2 2 2 3 3 4 3 4 4 4 4 4 5 5 5 5 6 6 6 6 6 6
1 0 0 1 2 2 2 2 2 2 3 3 4 4 4 3 3 3 3 2 1 2 2 2 2 3 3 3 3 4 4 4 5 5 5 5 5 5 6 6 6 6 6 6
1 1 1 1 2 3 2 1 1 1 1 1 1 2 2 2 1 1 1 1 2 2 2 2 3 3 2 2 3 3 4 4 4 4 5 5 5 5 5 6 6 6 6 7
1 1 2 2 2 1 1 1 1 2 1 1 1 0 0 1 1 1 1 1 1 1 2 3 3 2 2 2 3 3 4 4 4 4 4 4 5 5 5 5 5 5 6 6
1 1 1 0 1 1 1 1 1 0 0 0 0 0 1 1 0 1 1 1 2 2 2 2 2 2 2 2 3 3 3 3 4 4 5 5 5 5 5 5 7 6 6 6
2 2 2 2 2 2 1 0 0 1 1 1 1 1 1 1 1 1 1 1 1 2 2 2 2 2 2 2 3 3 3 4 4 4 4 4 5 5 5 6 5 5 5 6
Wind_Direction
274 281 254 243 225 206 212 222 231 248 255 266 270 267 268 270 267 268 268 263 257 257 256 254 250 240 234 236 232 220 219 224 236 244 247 246 249 248 240 239 240 239 242 247
275 252 262 262 243 225 228 234 244 261 269 267 272 262 258 256 255 259 262 261 258 256 252 245 240 238 233 233 227 216 220 231 238 237 238 240 246 245 241 242 244 240 241 245
254 324 307 263 228 205 210 216 215 232 246 254 252 244 248 254 252 255 260 259 256 253 250 243 236 231 231 231 219 214 225 233 232 232 237 242 245 241 245 246 243 244 253 254
265 348 246 247 138 194 214 231 222 239 254 253 257 273 269 257 255 258 256 255 254 252 250 244 235 228 225 217 211 217 228 233 233 235 239 245 246 245 250 249 246 249 252 256
184 251 274 276 205 184 204 254 223 231 247 254 262 289 271 247 238 242 246 249 252 247 242 231 221 212 197 204 208 219 235 240 238 233 236 238 245 250 249 248 249 253 259 261
179 226 249 250 152 159 165 268 219 212 232 229 186 246 268 218 217 235 242 244 245 238 220 217 217 192 188 205 207 230 241 241 236 230 231 236 244 252 254 251 256 264 265 264
205 235 261 242 141 152 195 249 182 199 213 195 201 229 265 191 231 235 240 242 232 216 212 217 197 178 196 210 227 240 240 233 234 237 239 242 246 247 251 253 263 267 271 276
182 214 248 169 156 197 221 199 179 198 204 205 220 241 254 253 253 246 240 235 221 214 215 207 183 185 206 228 242 230 212 217 229 238 242 241 243 251 251 248 251 263 274 282
196 217 245 174 201 218 220 224 223 216 217 216 230 243 249 250 247 242 236 229 215 210 210 207 191 195 217 240 229 201 200 219 231 235 238 237 234 239 243 245 250 259 266 277
240 253 244 227 237 243 235 237 241 235 230 219 233 245 246 245 240 234 225 218 206 198 211 222 208 209 229 239 194 190 212 224 224 226 235 233 237 236 239 240 247 255 261 270
243 260 273 252 233 236 236 238 243 243 234 230 235 241 239 240 235 227 219 207 196 206 219 228 217 221 229 217 192 207 222 225 224 226 233 237 239 243 245 248 251 256 258 261
227 220 212 236 223 216 221 229 231 232 238 232 225 235 235 235 231 219 212 201 199 209 219 228 221 231 233 212 200 210 223 227 225 226 229 236 246 264 261 263 276 273 275 278
235 230 226 251 249 219 219 228 225 221 227 232 226 223 226 231 225 209 207 204 208 213 217 220 221 231 232 209 200 209 223 225 224 223 227 234 241 252 271 272 263 266 269 273
237 234 248 244 243 228 219 225 217 221 227 224 220 211 210 220 221 214 219 219 211 204 206 211 220 236 231 205 204 215 224 224 226 228 230 233 237 244 252 262 272 272 267 265
230 223 235 245 244 231 213 198 203 223 223 223 210 205 202 207 219 224 220 198 180 194 212 213 227 241 216 198 207 215 219 223 223 228 230 234 238 242 246 250 257 269 279 272
228 226 232 237 239 234 217 207 216 228 223 219 214 212 210 207 211 214 200 181 186 210 214 212 229 235 192 195 206 213 222 227 221 224 226 229 232 236 241 245 250 256 261 270
211 225 221 228 231 231 223 219 219 223 218 217 217 208 191 183 195 215 217 205 208 221 217 219 233 220 193 199 205 213 217 217 213 221 227 228 230 234 237 241 245 252 258 261
221 229 220 218 217 218 222 219 216 216 216 215 199 182 184 189 205 216 214 197 199 227 237 238 232 204 200 204 206 211 210 213 213 221 226 228 233 236 239 243 248 254 263 264
225 230 227 220 211 203 209 211 213 211 204 184 180 192 200 204 207 205 189 183 199 227 243 237 224 207 213 214 201 207 210 215 219 223 227 232 235 238 240 244 249 253 256 259
233 228 220 216 196 190 199 198 190 189 185 172 171 178 194 207 200 189 180 201 222 240 227 206 208 214 218 214 205 209 214 219 224 227 227 230 236 241 243 246 249 252 253 254
256 242 205 186 186 186 188 185 171 177 174 166 175 188 196 199 189 182 189 225 245 236 229 214 214 221 218 212 207 215 217 222 227 231 233 236 240 244 247 249 251 251 253 255
283 249 219 171 158 168 180 163 163 166 161 166 173 170 167 177 188 199 215 236 260 232 232 230 228 225 220 212 213 219 225 229 232 234 236 237 240 244 248 250 252 254 255 257
330 322 289 190 172 162 116 112 141 162 171 180 181 184 190 194 194 204 234 243 244 238 239 246 257 239 221 214 219 222 226 231 234 237 239 241 243 246 250 253 254 256 258 259
21 23 28 38 92 102 98 74 87 149 168 181 179 181 177 184 219 244 282 227 230 241 253 256 250 243 226 233 231 231 233 235 239 242 245 247 247 249 251 254 257 260 261 263
43 56 68 79 101 115 117 91 83 77 81 92 96 96 220 236 233 248 252 246 249 254 261 255 250 246 237 240 243 244 243 241 242 245 246 248 250 252 253 255 256 260 262 263
47 56 56 27 42 82 107 122 124 121 110 100 1 354 340 339 322 270 254 251 250 256 258 257 250 245 244 245 249 256 261 260 253 247 247 250 253 254 255 256 260 261 262 263
53 53 49 37 27 26 23 36 181 212 216 216 256 281 315 314 298 281 271 262 259 262 268 270 263 258 258 258 261 262 261 260 259 258 255 252 252 253 256 258 260 261 263 263